Погода в Кошехабле

Россия / Республика Адыгея     44°54′00″N   40°30′10″E
темп.,
°C
ветер,
м/с
пор.,
м/с
влажн.,
%
обл.,
%
осадки,
мм/ч
давл.,
гПа
погр.,
м
21 апреля, ср
ср2100:00+13юз9185177 0.0 1012811
03:00+11зюз61277100 0.4 1014731
06:00+8з5139031 0.2 1017583
09:00+13з577269 0.2 1019955
12:00+15з3563100 0.0 10191355
15:00+16з345995 0.1 10191551
18:00+14ю348126 0.5 1020192
21:00+10юв35915 0.8 102187
22 апреля, чт
чт2200:00+9юв3491100 0.0 102174
03:00+9ю2291100 0.0 102125
06:00+8ююз1193100 0.0 102226
09:00+13в237730 0.0 1022636
12:00+15в3470100 0.1 1022875
15:00+16всв1267100 0.2 1021747
18:00+14ссв128198 1.7 102149
21:00+11в229262 4.1 102320
23 апреля, пт
пт2300:00+9зюз34945 0.2 102252
03:00+7зюз34965 0.2 102364
06:00+7зюз349815 0.0 102493
09:00+13зюз22815 0.0 1024467
12:00+16з23590 0.0 10221401
15:00+18сз33515 0.0 10211743
18:00+16св2266100 0.0 102028
21:00+12в3367100 0.0 101940
24 апреля, сб
сб2400:00+11вюв3368100 0.0 101755
03:00+11з2271100 0.0 101719
06:00+10з3486100 0.0 1019130
09:00+14ююз126967 0.0 1018508
12:00+18з6135447 0.0 10182005
15:00+18з813575 0.0 10171861
18:00+14зсз7146525 0.0 1018725
21:00+10с2291100 0.0 102144
25 апреля, вс
вс2500:00+9зюз2287100 0.0 102158
03:00+8зсз2385100 0.0 102179
06:00+8сз1276100 0.0 102062
09:00+8ссв0172100 0.2 1020254
12:00+7ю1189100 3.5 1021294
15:00+7св1293100 10.2 1020265
18:00+6с3596100 7.7 1020290
21:00+6ссв2395100 11.9 1020185